This is the latest recevied weather packets stored in our database for station/object SQ5LTL-2. If no packets are shown the sender has not sent any weather packets the latest 10 day(s).
| Time | Temp. | Humidity | Pressure | Rain* | Wind** | Luminosity | Snow |
|---|---|---|---|---|---|---|---|
| 1778093421 | 16.67° C | 67% | 1007.3 hPa | 0 mm | - | 0 W/m² | - |
| 1778093120 | 16.67° C | 67% | 1007.3 hPa | 0 mm | - | 0 W/m² | - |
| 1778092818 | 17.22° C | 66% | 1007.2 hPa | 0 mm | - | 0 W/m² | - |
| 1778092516 | 17.22° C | 66% | 1007.2 hPa | 0 mm | - | 0 W/m² | - |
| 1778092235 | 17.78° C | 64% | 1007.3 hPa | 0 mm | - | 0 W/m² | - |
| 1778091934 | 17.78° C | 64% | 1007.2 hPa | 0 mm | - | 0 W/m² | - |
| 1778091632 | 17.78° C | 63% | 1007.1 hPa | 0 mm | - | 1 W/m² | - |
| 1778091331 | 18.33° C | 62% | 1007 hPa | 0 mm | - | 1 W/m² | - |
| 1778091029 | 18.33° C | 60% | 1006.8 hPa | 0 mm | - | 2 W/m² | - |
| 1778090729 | 18.89° C | 58% | 1006.8 hPa | 0 mm | - | 3 W/m² | - |
| 1778090426 | 19.44° C | 58% | 1006.9 hPa | 0 mm | - | 4 W/m² | - |
| 1778090125 | 19.44° C | 57% | 1006.9 hPa | 0 mm | - | 5 W/m² | - |
| 1778089823 | 20° C | 57% | 1007 hPa | 0 mm | - | 7 W/m² | - |
| 1778089522 | 20° C | 56% | 1007.1 hPa | 0 mm | - | 8 W/m² | - |
| 1778089220 | 20.56° C | 54% | 1007 hPa | 0 mm | - | 10 W/m² | - |
| 1778088919 | 21.11° C | 53% | 1006.8 hPa | 0 mm | - | 11 W/m² | - |
| 1778088618 | 21.11° C | 53% | 1006.8 hPa | 0 mm | - | 14 W/m² | - |
| 1778088317 | 21.67° C | 51% | 1007 hPa | 0 mm | - | 17 W/m² | - |
| 1778088035 | 22.22° C | 50% | 1006.9 hPa | 0 mm | - | 24 W/m² | - |
| 1778087733 | 22.78° C | 48% | 1006.9 hPa | 0 mm | - | 35 W/m² | - |
| 1778087431 | 22.78° C | 46% | 1006.9 hPa | 0 mm | - | 39 W/m² | - |
| 1778087130 | 22.78° C | 46% | 1006.8 hPa | 0 mm | - | 40 W/m² | - |
| 1778086829 | 23.33° C | 44% | 1006.9 hPa | 0 mm | - | 41 W/m² | - |
| 1778086527 | 23.89° C | 42% | 1006.7 hPa | 0 mm | - | 47 W/m² | - |
| 1778086226 | 23.33° C | 42% | 1006.8 hPa | 0 mm | - | 60 W/m² | - |
* Rain latest hour (hover to see other rain measurements)
** Current wind speed in m/s (hover to see current wind gust speed)